NORTHEAST SUFFOLK  -  Frost Advisory Frost Advisory     Special Weather Statement Special Weather Statement        NORTHERN NASSAU  -  Frost Advisory Frost Advisory     Special Weather Statement Special Weather Statement        NORTHWEST SUFFOLK  -  Frost Advisory Frost Advisory     Special Weather Statement Special Weather Statement        SOUTHEAST SUFFOLK  -  Frost Advisory Frost Advisory     Special Weather Statement Special Weather Statement        SOUTHERN NASSAU  -  Frost Advisory Frost Advisory     Special Weather Statement Special Weather Statement        SOUTHWEST SUFFOLK  -  Frost Advisory Frost Advisory     Special Weather Statement Special Weather Statement        NORTHERN QUEENS  -  Special Weather Statement Special Weather Statement        SOUTHERN QUEENS  -  Special Weather Statement Special Weather Statement      

Active alerts

Northern Nassau
  Details for Northern Nassau Frost Advisory  +1 additional alert
Southern Nassau
  Details for Southern Nassau Frost Advisory  +1 additional alert
Northwest Suffolk
  Details for Northwest Suffolk Frost Advisory  +1 additional alert
Southwest Suffolk
  Details for Southwest Suffolk Frost Advisory  +1 additional alert
Northeast Suffolk
  Details for Northeast Suffolk Frost Advisory  +1 additional alert
Southeast Suffolk
  Details for Southeast Suffolk Frost Advisory  +1 additional alert
Northern Queens
  Details for Northern Queens Special Weather Statement
Southern Queens
  Details for Southern Queens Special Weather Statement


WXM80 ListenWXM80 Stop

You find our weather info also at:

UK Metoffice

WeatherCloud

Weather Underground

Northeastern Weather Network

AWEKAS

Citizen Weather Observer Program (CWOP)

HAMweather, WeatherForYou, PWS Weather


Weather Underground History page Text

Daily Summary for April 11, 2016 Units:  English    Metric   Both
« Previous Day
Next Day »
Daily Weekly Monthly Yearly Custom
  High: Low: Average:
Temperature: 61.8 °F 43.8 °F 51.8 °F
Dew Point: 49.2 °F 34.0 °F 42.1 °F
Humidity: 81 % 51 % 70 %
Wind Speed: 13.0 mph 1.1 mph 5.9 mph
Wind Gust: 27.6 mph - -
Wind:- - SSW
Pressure: 30.31 in 29.97 in -
Precipitation: 0.00 in    
Historical Graphs
 
 
Tabular Data for April 11, 2016
Time Temperature Dew Point Pressure Wind Wind Speed Wind Gust Humidity Rainfall Rate (Hourly)
00:02 43.8 °F 35.7 °F 30.30 in SSW 4.4 mph 11.5 mph 73 % 0.00 in
00:07 43.8 °F 36.0 °F 30.30 in SSW 5.0 mph 8.1 mph 74 % 0.00 in
00:12 43.9 °F 35.8 °F 30.30 in South 3.5 mph 4.6 mph 73 % 0.00 in
00:17 43.9 °F 36.1 °F 30.30 in WSW 2.3 mph 6.9 mph 74 % 0.00 in
00:22 43.9 °F 35.8 °F 30.29 in SSW 5.2 mph 5.2 mph 73 % 0.00 in
00:28 43.9 °F 35.8 °F 30.29 in SW 3.0 mph 6.9 mph 73 % 0.00 in
00:33 43.9 °F 35.5 °F 30.29 in SW 5.3 mph 10.4 mph 72 % 0.00 in
00:38 43.9 °F 35.5 °F 30.30 in SW 4.4 mph 6.9 mph 72 % 0.00 in
00:48 43.9 °F 35.1 °F 30.30 in WSW 3.3 mph 6.0 mph 71 % 0.00 in
00:53 43.9 °F 34.7 °F 30.30 in SW 5.8 mph 9.2 mph 70 % 0.00 in
00:58 43.9 °F 34.4 °F 30.31 in SW 5.4 mph 9.2 mph 69 % 0.00 in
01:03 43.9 °F 34.4 °F 30.30 in SSW 3.7 mph 7.0 mph 69 % 0.00 in
01:08 43.9 °F 34.4 °F 30.30 in SSW 6.2 mph 11.5 mph 69 % 0.00 in
01:13 43.9 °F 34.0 °F 30.30 in SSW 3.6 mph 8.0 mph 68 % 0.00 in
01:19 43.9 °F 34.4 °F 30.30 in SW 2.0 mph 10.4 mph 69 % 0.00 in
01:24 43.9 °F 34.4 °F 30.30 in SW 7.0 mph 10.4 mph 69 % 0.00 in
01:29 44.0 °F 34.8 °F 30.29 in SW 2.0 mph 5.0 mph 70 % 0.00 in
01:34 44.0 °F 34.8 °F 30.29 in SSW 6.7 mph 9.2 mph 70 % 0.00 in
01:39 44.0 °F 35.2 °F 30.29 in SSW 5.3 mph 8.1 mph 71 % 0.00 in
01:44 43.9 °F 35.5 °F 30.29 in South 3.9 mph 8.1 mph 72 % 0.00 in
01:49 44.0 °F 35.9 °F 30.28 in South 2.3 mph 4.6 mph 73 % 0.00 in
01:54 44.0 °F 36.2 °F 30.28 in South 2.5 mph 6.9 mph 74 % 0.00 in
02:05 44.0 °F 36.6 °F 30.28 in South 3.5 mph 4.6 mph 75 % 0.00 in
02:10 44.0 °F 36.6 °F 30.28 in South 1.2 mph 3.0 mph 75 % 0.00 in
02:15 44.0 °F 36.9 °F 30.27 in SSW 5.1 mph 8.1 mph 76 % 0.00 in
02:20 43.9 °F 36.8 °F 30.28 in SSW 4.4 mph 7.0 mph 76 % 0.00 in
02:25 44.0 °F 37.3 °F 30.27 in South 1.1 mph 3.5 mph 77 % 0.00 in
02:30 43.9 °F 37.5 °F 30.27 in South 3.0 mph 4.6 mph 78 % 0.00 in
02:40 44.0 °F 37.6 °F 30.26 in SW 1.4 mph 3.5 mph 78 % 0.00 in
02:45 44.0 °F 37.6 °F 30.27 in SSW 3.3 mph 5.8 mph 78 % 0.00 in
02:50 44.0 °F 37.9 °F 30.26 in SSW 4.6 mph 6.9 mph 79 % 0.00 in
02:56 44.0 °F 37.9 °F 30.26 in SSW 4.7 mph 11.0 mph 79 % 0.00 in
03:01 44.0 °F 37.9 °F 30.26 in SSW 4.3 mph 6.9 mph 79 % 0.00 in
03:06 44.0 °F 37.9 °F 30.26 in South 3.6 mph 11.5 mph 79 % 0.00 in
03:11 44.0 °F 37.9 °F 30.26 in SSW 5.9 mph 11.5 mph 79 % 0.00 in
03:16 44.0 °F 38.2 °F 30.26 in SSW 4.0 mph 6.9 mph 80 % 0.00 in
03:21 44.0 °F 38.2 °F 30.26 in SSW 4.3 mph 8.0 mph 80 % 0.00 in
03:26 44.0 °F 38.2 °F 30.27 in SSW 2.4 mph 5.0 mph 80 % 0.00 in
03:31 44.0 °F 38.2 °F 30.26 in SSW 1.6 mph 6.9 mph 80 % 0.00 in
03:36 44.0 °F 38.2 °F 30.26 in SSW 2.1 mph 5.8 mph 80 % 0.00 in
03:41 44.0 °F 38.2 °F 30.26 in SSW 4.3 mph 4.3 mph 80 % 0.00 in
03:47 44.0 °F 38.2 °F 30.25 in South 4.1 mph 5.8 mph 80 % 0.00 in
03:52 44.0 °F 38.2 °F 30.25 in SW 2.1 mph 8.1 mph 80 % 0.00 in
03:57 44.1 °F 38.3 °F 30.25 in South 2.6 mph 5.8 mph 80 % 0.00 in
04:02 44.1 °F 38.3 °F 30.25 in South 3.4 mph 6.0 mph 80 % 0.00 in
04:07 44.2 °F 38.4 °F 30.25 in South 1.9 mph 4.6 mph 80 % 0.00 in
04:12 44.3 °F 38.5 °F 30.25 in South 2.8 mph 6.0 mph 80 % 0.00 in
04:17 44.3 °F 38.2 °F 30.25 in WSW 2.7 mph 6.9 mph 79 % 0.00 in
04:22 44.4 °F 38.3 °F 30.25 in SSW 4.8 mph 5.0 mph 79 % 0.00 in
04:27 44.4 °F 38.3 °F 30.25 in SW 2.9 mph 6.9 mph 79 % 0.00 in
04:32 44.4 °F 38.3 °F 30.25 in SSW 4.6 mph 10.4 mph 79 % 0.00 in
04:38 44.5 °F 38.1 °F 30.25 in South 2.6 mph 9.2 mph 78 % 0.00 in
04:43 44.5 °F 38.1 °F 30.25 in SSW 4.1 mph 10.4 mph 78 % 0.00 in
04:48 44.6 °F 38.2 °F 30.25 in SSW 4.0 mph 9.0 mph 78 % 0.00 in
04:53 44.6 °F 37.8 °F 30.25 in SSW 4.1 mph 7.0 mph 77 % 0.00 in
04:58 44.6 °F 37.8 °F 30.25 in SSW 2.9 mph 8.1 mph 77 % 0.00 in
05:03 44.6 °F 38.2 °F 30.25 in South 4.4 mph 8.0 mph 78 % 0.00 in
05:08 44.6 °F 37.8 °F 30.25 in SSW 4.3 mph 7.0 mph 77 % 0.00 in
05:13 44.6 °F 38.2 °F 30.25 in South 3.9 mph 5.8 mph 78 % 0.00 in
05:18 44.6 °F 37.8 °F 30.24 in SSW 2.9 mph 8.1 mph 77 % 0.00 in
05:23 44.7 °F 38.3 °F 30.25 in South 3.6 mph 8.0 mph 78 % 0.00 in
05:29 44.7 °F 38.3 °F 30.24 in SSW 3.9 mph 4.6 mph 78 % 0.00 in
05:34 44.7 °F 38.3 °F 30.24 in SW 5.1 mph 9.2 mph 78 % 0.00 in
05:44 44.8 °F 38.4 °F 30.24 in SSW 4.7 mph 7.0 mph 78 % 0.00 in
05:49 44.8 °F 38.0 °F 30.25 in SSW 2.9 mph 6.9 mph 77 % 0.00 in
05:54 44.8 °F 38.0 °F 30.24 in SSW 5.2 mph 12.0 mph 77 % 0.00 in
05:59 44.9 °F 38.5 °F 30.24 in SSW 7.6 mph 10.4 mph 78 % 0.00 in
06:09 44.9 °F 38.1 °F 30.24 in SSE 4.8 mph 9.2 mph 77 % 0.00 in
06:14 44.9 °F 38.1 °F 30.24 in South 6.9 mph 9.2 mph 77 % 0.00 in
06:25 45.1 °F 38.0 °F 30.24 in South 4.6 mph 9.0 mph 76 % 0.00 in
06:30 45.1 °F 38.0 °F 30.23 in SSW 6.0 mph 10.4 mph 76 % 0.00 in
06:40 45.3 °F 38.2 °F 30.23 in SSW 8.3 mph 11.5 mph 76 % 0.00 in
06:45 45.4 °F 38.3 °F 30.23 in South 5.6 mph 6.9 mph 76 % 0.00 in
06:50 45.5 °F 38.4 °F 30.24 in SSW 4.3 mph 5.8 mph 76 % 0.00 in
06:55 45.6 °F 38.5 °F 30.24 in SSE 6.1 mph 9.2 mph 76 % 0.00 in
07:00 45.7 °F 38.6 °F 30.24 in South 5.2 mph 11.5 mph 76 % 0.00 in
07:05 45.7 °F 38.6 °F 30.24 in SSW 4.5 mph 5.0 mph 76 % 0.00 in
07:11 45.8 °F 38.7 °F 30.24 in SSW 7.6 mph 8.1 mph 76 % 0.00 in
07:16 46.0 °F 38.9 °F 30.24 in South 4.9 mph 10.4 mph 76 % 0.00 in
07:21 46.1 °F 39.0 °F 30.23 in South 4.3 mph 9.0 mph 76 % 0.00 in
07:26 46.2 °F 39.1 °F 30.23 in SSW 3.7 mph 6.9 mph 76 % 0.00 in
07:31 46.3 °F 39.1 °F 30.24 in South 4.7 mph 9.2 mph 76 % 0.00 in
07:36 46.4 °F 39.2 °F 30.24 in South 3.5 mph 6.9 mph 76 % 0.00 in
07:41 46.6 °F 39.8 °F 30.23 in South 7.5 mph 13.0 mph 77 % 0.00 in
07:46 46.7 °F 39.5 °F 30.23 in South 6.0 mph 11.0 mph 76 % 0.00 in
07:51 46.9 °F 39.7 °F 30.23 in SSW 6.3 mph 11.5 mph 76 % 0.00 in
07:56 47.0 °F 40.2 °F 30.22 in South 2.9 mph 8.1 mph 77 % 0.00 in
08:02 47.2 °F 40.7 °F 30.22 in South 6.0 mph 6.0 mph 78 % 0.00 in
08:07 47.4 °F 40.6 °F 30.22 in SSW 7.5 mph 11.5 mph 77 % 0.00 in
08:12 47.7 °F 40.8 °F 30.22 in South 4.3 mph 9.0 mph 77 % 0.00 in
08:17 47.9 °F 41.0 °F 30.22 in WNW 5.3 mph 9.2 mph 77 % 0.00 in
08:22 48.2 °F 41.3 °F 30.22 in SSW 6.1 mph 9.2 mph 77 % 0.00 in
08:27 48.7 °F 41.5 °F 30.21 in WSW 4.6 mph 10.0 mph 76 % 0.00 in
08:32 49.2 °F 41.6 °F 30.22 in SSW 6.0 mph 10.4 mph 75 % 0.00 in
08:37 49.5 °F 41.6 °F 30.22 in SSE 4.5 mph 10.4 mph 74 % 0.00 in
08:42 49.6 °F 40.9 °F 30.22 in SW 9.3 mph 12.7 mph 72 % 0.00 in
08:47 49.5 °F 40.8 °F 30.22 in WSW 5.6 mph 10.4 mph 72 % 0.00 in
08:53 49.5 °F 40.8 °F 30.22 in SSW 8.8 mph 18.4 mph 72 % 0.00 in
08:58 49.4 °F 40.7 °F 30.22 in SSW 5.2 mph 11.5 mph 72 % 0.00 in
09:08 49.2 °F 40.6 °F 30.21 in SSW 6.4 mph 13.8 mph 72 % 0.00 in
09:13 49.1 °F 40.5 °F 30.20 in South 7.2 mph 11.5 mph 72 % 0.00 in
09:18 49.0 °F 40.4 °F 30.20 in SSW 8.3 mph 12.0 mph 72 % 0.00 in
09:23 49.1 °F 40.5 °F 30.20 in SSW 5.8 mph 11.5 mph 72 % 0.00 in
09:33 49.3 °F 40.3 °F 30.20 in SSW 7.4 mph 9.2 mph 71 % 0.00 in
09:38 49.4 °F 40.4 °F 30.20 in South 5.6 mph 10.4 mph 71 % 0.00 in
09:44 49.4 °F 40.0 °F 30.19 in WSW 11.2 mph 13.8 mph 70 % 0.00 in
09:49 49.4 °F 40.0 °F 30.20 in SSW 5.3 mph 8.1 mph 70 % 0.00 in
09:54 49.5 °F 40.5 °F 30.19 in SSW 10.2 mph 18.4 mph 71 % 0.00 in
09:59 49.7 °F 40.3 °F 30.19 in South 8.9 mph 15.0 mph 70 % 0.00 in
10:09 49.9 °F 40.5 °F 30.19 in SSW 7.6 mph 16.1 mph 70 % 0.00 in
10:14 49.9 °F 40.5 °F 30.19 in South 5.9 mph 15.0 mph 70 % 0.00 in
10:29 50.1 °F 41.1 °F 30.19 in SSW 6.7 mph 11.5 mph 71 % 0.00 in
10:35 50.3 °F 40.9 °F 30.19 in SSW 5.0 mph 7.0 mph 70 % 0.00 in
10:40 50.5 °F 41.1 °F 30.19 in South 7.4 mph 12.7 mph 70 % 0.00 in
10:45 51.1 °F 41.7 °F 30.18 in South 10.6 mph 13.0 mph 70 % 0.00 in
10:50 51.6 °F 41.8 °F 30.18 in SSW 6.9 mph 12.7 mph 69 % 0.00 in
10:55 51.9 °F 41.7 °F 30.18 in SSW 8.2 mph 12.7 mph 68 % 0.00 in
11:00 52.3 °F 42.4 °F 30.18 in South 3.4 mph 8.1 mph 69 % 0.00 in
11:05 53.1 °F 42.8 °F 30.17 in SSE 5.9 mph 10.0 mph 68 % 0.00 in
11:10 54.3 °F 43.6 °F 30.17 in SSW 7.4 mph 19.0 mph 67 % 0.00 in
11:15 54.8 °F 42.9 °F 30.16 in SSE 6.8 mph 16.1 mph 64 % 0.00 in
11:20 54.8 °F 42.4 °F 30.16 in SW 11.3 mph 20.7 mph 63 % 0.00 in
11:26 54.9 °F 42.5 °F 30.16 in South 6.7 mph 16.1 mph 63 % 0.00 in
11:31 55.5 °F 43.5 °F 30.16 in SSW 8.3 mph 13.8 mph 64 % 0.00 in
11:36 56.8 °F 43.9 °F 30.16 in SSW 7.7 mph 12.7 mph 62 % 0.00 in
11:41 57.5 °F 43.3 °F 30.16 in SSW 10.7 mph 21.9 mph 59 % 0.00 in
11:46 57.5 °F 42.8 °F 30.16 in SSW 7.3 mph 15.0 mph 58 % 0.00 in
11:51 57.2 °F 43.0 °F 30.15 in SSW 9.6 mph 16.1 mph 59 % 0.00 in
11:56 56.7 °F 42.5 °F 30.15 in SSW 3.9 mph 11.5 mph 59 % 0.00 in
12:01 56.3 °F 42.1 °F 30.15 in SW 6.2 mph 11.0 mph 59 % 0.00 in
12:06 55.8 °F 41.7 °F 30.15 in SW 6.1 mph 13.8 mph 59 % 0.00 in
12:17 55.5 °F 42.3 °F 30.15 in SSW 8.1 mph 16.1 mph 61 % 0.00 in
12:22 55.4 °F 42.2 °F 30.15 in SSW 3.1 mph 6.9 mph 61 % 0.00 in
12:27 55.3 °F 42.1 °F 30.14 in South 8.3 mph 11.5 mph 61 % 0.00 in
12:32 55.2 °F 42.0 °F 30.14 in SSW 5.6 mph 11.5 mph 61 % 0.00 in
12:37 55.1 °F 41.9 °F 30.14 in South 6.1 mph 18.4 mph 61 % 0.00 in
12:42 55.1 °F 41.9 °F 30.13 in South 7.8 mph 19.6 mph 61 % 0.00 in
12:47 55.3 °F 42.1 °F 30.13 in SSW 3.2 mph 8.0 mph 61 % 0.00 in
12:52 55.7 °F 42.0 °F 30.13 in SSW 10.2 mph 13.8 mph 60 % 0.00 in
12:57 56.4 °F 42.2 °F 30.13 in SW 4.3 mph 13.8 mph 59 % 0.00 in
13:02 56.9 °F 42.3 °F 30.12 in SSW 7.0 mph 19.6 mph 58 % 0.00 in
13:13 56.8 °F 41.7 °F 30.12 in South 4.1 mph 11.5 mph 57 % 0.00 in
13:18 56.6 °F 42.0 °F 30.11 in SSE 6.2 mph 11.5 mph 58 % 0.00 in
13:23 56.7 °F 42.1 °F 30.11 in SE 6.4 mph 11.5 mph 58 % 0.00 in
13:28 57.5 °F 42.8 °F 30.11 in SSW 10.5 mph 18.4 mph 58 % 0.00 in
13:33 58.1 °F 42.5 °F 30.10 in SSW 8.9 mph 16.1 mph 56 % 0.00 in
13:38 58.9 °F 42.8 °F 30.11 in South 9.9 mph 18.4 mph 55 % 0.00 in
13:43 59.9 °F 43.7 °F 30.11 in SSW 5.9 mph 11.5 mph 55 % 0.00 in
13:48 60.6 °F 44.3 °F 30.11 in SW 5.9 mph 11.5 mph 55 % 0.00 in
13:53 61.1 °F 43.8 °F 30.11 in SSE 5.6 mph 10.0 mph 53 % 0.00 in
13:59 61.3 °F 43.5 °F 30.10 in SSW 7.0 mph 12.7 mph 52 % 0.00 in
14:04 61.7 °F 43.9 °F 30.10 in SE 9.6 mph 17.3 mph 52 % 0.00 in
14:09 61.8 °F 43.5 °F 30.09 in SSW 4.6 mph 11.5 mph 51 % 0.00 in
14:14 61.3 °F 43.0 °F 30.09 in South 7.6 mph 13.8 mph 51 % 0.00 in
14:19 61.3 °F 44.0 °F 30.08 in SW 5.4 mph 11.5 mph 53 % 0.00 in
14:24 61.4 °F 43.6 °F 30.08 in WSW 9.1 mph 18.4 mph 52 % 0.00 in
14:29 61.4 °F 44.1 °F 30.09 in South 6.1 mph 10.4 mph 53 % 0.00 in
14:34 61.4 °F 44.1 °F 30.09 in SW 7.3 mph 12.0 mph 53 % 0.00 in
14:39 61.2 °F 43.9 °F 30.09 in SSW 4.0 mph 9.2 mph 53 % 0.00 in
14:44 61.2 °F 44.4 °F 30.09 in South 9.5 mph 15.0 mph 54 % 0.00 in
14:50 60.6 °F 43.9 °F 30.08 in SSE 3.7 mph 15.0 mph 54 % 0.00 in
14:55 60.3 °F 43.6 °F 30.07 in SW 7.7 mph 11.5 mph 54 % 0.00 in
15:00 60.8 °F 44.5 °F 30.08 in SW 6.4 mph 12.0 mph 55 % 0.00 in
15:05 61.2 °F 44.4 °F 30.07 in SSW 7.0 mph 12.7 mph 54 % 0.00 in
15:10 61.3 °F 43.5 °F 30.07 in SSW 9.9 mph 18.4 mph 52 % 0.00 in
15:15 61.2 °F 42.9 °F 30.07 in SW 9.2 mph 18.4 mph 51 % 0.00 in
15:20 61.0 °F 43.2 °F 30.06 in South 7.0 mph 15.0 mph 52 % 0.00 in
15:25 60.9 °F 43.1 °F 30.06 in South 7.6 mph 19.6 mph 52 % 0.00 in
15:30 61.1 °F 43.3 °F 30.06 in SSW 8.1 mph 17.0 mph 52 % 0.00 in
15:41 60.8 °F 43.1 °F 30.05 in SSE 6.2 mph 10.4 mph 52 % 0.00 in
15:46 60.9 °F 43.6 °F 30.05 in SSW 4.9 mph 9.2 mph 53 % 0.00 in
15:51 60.8 °F 43.1 °F 30.05 in South 6.3 mph 12.7 mph 52 % 0.00 in
15:56 60.9 °F 42.6 °F 30.05 in SSW 8.0 mph 11.5 mph 51 % 0.00 in
16:06 60.8 °F 43.1 °F 30.04 in South 3.2 mph 6.9 mph 52 % 0.00 in
16:11 60.9 °F 43.1 °F 30.04 in SSW 10.6 mph 15.0 mph 52 % 0.00 in
16:21 60.8 °F 43.1 °F 30.03 in SSW 11.6 mph 18.4 mph 52 % 0.00 in
16:32 60.5 °F 43.3 °F 30.03 in SW 6.8 mph 16.1 mph 53 % 0.00 in
16:42 60.4 °F 44.6 °F 30.03 in South 6.0 mph 11.5 mph 56 % 0.00 in
16:47 60.6 °F 43.9 °F 30.03 in South 7.9 mph 12.7 mph 54 % 0.00 in
16:52 60.3 °F 44.1 °F 30.02 in SSW 7.1 mph 17.3 mph 55 % 0.00 in
16:57 59.6 °F 43.9 °F 30.02 in SW 5.2 mph 12.7 mph 56 % 0.00 in
17:02 59.4 °F 44.2 °F 30.02 in South 6.5 mph 11.0 mph 57 % 0.00 in
17:07 58.9 °F 43.7 °F 30.02 in South 8.7 mph 18.4 mph 57 % 0.00 in
17:12 58.6 °F 44.3 °F 30.02 in SSW 7.8 mph 12.7 mph 59 % 0.00 in
17:17 58.5 °F 44.2 °F 30.01 in SSE 3.8 mph 11.5 mph 59 % 0.00 in
17:22 58.6 °F 44.3 °F 30.02 in South 8.2 mph 13.8 mph 59 % 0.00 in
17:28 58.4 °F 44.1 °F 30.02 in South 1.8 mph 9.2 mph 59 % 0.00 in
17:33 58.0 °F 43.7 °F 30.01 in WSW 8.1 mph 15.0 mph 59 % 0.00 in
17:38 57.6 °F 43.8 °F 30.01 in SSW 4.6 mph 6.9 mph 60 % 0.00 in
17:43 57.3 °F 44.0 °F 30.01 in SSW 8.0 mph 13.8 mph 61 % 0.00 in
17:48 57.0 °F 44.1 °F 30.02 in South 5.5 mph 9.2 mph 62 % 0.00 in
17:53 56.8 °F 43.9 °F 30.02 in South 7.7 mph 13.0 mph 62 % 0.00 in
17:58 56.6 °F 44.1 °F 30.02 in SW 6.1 mph 17.3 mph 63 % 0.00 in
18:03 56.4 °F 44.4 °F 30.01 in SSE 5.8 mph 15.0 mph 64 % 0.00 in
18:08 56.2 °F 44.6 °F 30.01 in South 2.6 mph 4.6 mph 65 % 0.00 in
18:13 56.1 °F 44.9 °F 30.01 in SW 6.1 mph 10.4 mph 66 % 0.00 in
18:24 55.8 °F 45.4 °F 30.02 in SSE 5.8 mph 11.5 mph 68 % 0.00 in
18:29 55.7 °F 45.7 °F 30.03 in WSW 8.0 mph 15.0 mph 69 % 0.00 in
18:34 55.5 °F 45.5 °F 30.03 in WSW 7.0 mph 11.5 mph 69 % 0.00 in
18:39 55.4 °F 45.8 °F 30.03 in SSW 4.3 mph 5.8 mph 70 % 0.00 in
18:44 55.3 °F 46.1 °F 30.03 in SSW 6.5 mph 10.4 mph 71 % 0.00 in
18:54 55.2 °F 46.0 °F 30.02 in South 6.0 mph 7.0 mph 71 % 0.00 in
18:59 55.1 °F 46.2 °F 30.02 in SSW 7.5 mph 12.7 mph 72 % 0.00 in
19:04 55.1 °F 46.6 °F 30.02 in South 5.3 mph 11.5 mph 73 % 0.00 in
19:10 55.0 °F 47.2 °F 30.02 in South 6.3 mph 11.5 mph 75 % 0.00 in
19:15 54.8 °F 47.0 °F 30.02 in South 5.9 mph 13.0 mph 75 % 0.00 in
19:20 54.6 °F 46.8 °F 30.01 in South 6.0 mph 11.5 mph 75 % 0.00 in
19:25 54.5 °F 46.7 °F 30.01 in South 5.3 mph 6.9 mph 75 % 0.00 in
19:30 54.4 °F 47.0 °F 30.01 in SSW 4.7 mph 7.0 mph 76 % 0.00 in
19:35 54.3 °F 46.9 °F 30.02 in South 6.9 mph 10.4 mph 76 % 0.00 in
19:40 54.2 °F 47.1 °F 30.01 in South 7.0 mph 11.5 mph 77 % 0.00 in
19:45 54.2 °F 47.1 °F 30.01 in SSW 6.2 mph 12.7 mph 77 % 0.00 in
19:50 54.1 °F 47.0 °F 30.01 in SSW 5.6 mph 10.4 mph 77 % 0.00 in
19:55 54.1 °F 47.0 °F 30.01 in SSW 5.3 mph 6.9 mph 77 % 0.00 in
20:01 54.2 °F 47.1 °F 30.01 in South 5.5 mph 11.5 mph 77 % 0.00 in
20:06 54.3 °F 47.2 °F 30.01 in South 5.1 mph 10.4 mph 77 % 0.00 in
20:11 54.3 °F 47.2 °F 30.01 in SSW 7.0 mph 11.5 mph 77 % 0.00 in
20:16 54.4 °F 47.3 °F 30.01 in South 5.0 mph 11.5 mph 77 % 0.00 in
20:21 54.4 °F 47.3 °F 30.01 in South 6.9 mph 15.0 mph 77 % 0.00 in
20:26 54.4 °F 47.3 °F 30.02 in SSW 6.1 mph 9.2 mph 77 % 0.00 in
20:36 54.4 °F 47.7 °F 30.02 in South 2.4 mph 10.4 mph 78 % 0.00 in
20:41 54.4 °F 47.7 °F 30.02 in South 6.8 mph 11.5 mph 78 % 0.00 in
20:46 54.4 °F 47.7 °F 30.02 in SSW 5.3 mph 15.0 mph 78 % 0.00 in
20:52 54.4 °F 47.7 °F 30.02 in SSW 4.9 mph 10.4 mph 78 % 0.00 in
20:57 54.4 °F 48.0 °F 30.01 in SSW 3.8 mph 9.2 mph 79 % 0.00 in
21:02 54.4 °F 48.0 °F 30.01 in SSW 3.3 mph 12.7 mph 79 % 0.00 in
21:07 54.4 °F 48.0 °F 30.01 in South 4.9 mph 8.1 mph 79 % 0.00 in
21:12 54.4 °F 48.4 °F 30.01 in South 4.6 mph 11.5 mph 80 % 0.00 in
21:17 54.4 °F 48.4 °F 30.02 in SSW 4.1 mph 8.1 mph 80 % 0.00 in
21:27 54.3 °F 48.3 °F 30.02 in SW 4.9 mph 9.2 mph 80 % 0.00 in
21:38 54.2 °F 48.5 °F 30.01 in SSW 4.2 mph 9.2 mph 81 % 0.00 in
21:43 54.3 °F 48.6 °F 30.02 in SSW 5.0 mph 11.5 mph 81 % 0.00 in
21:48 54.4 °F 48.7 °F 30.01 in SSW 4.5 mph 8.1 mph 81 % 0.00 in
21:53 54.5 °F 48.8 °F 30.01 in South 6.9 mph 11.5 mph 81 % 0.00 in
21:58 54.6 °F 48.9 °F 30.01 in SSW 10.4 mph 16.1 mph 81 % 0.00 in
22:08 54.9 °F 48.8 °F 30.01 in SSW 4.1 mph 6.9 mph 80 % 0.00 in
22:13 55.0 °F 48.9 °F 30.00 in South 9.4 mph 18.0 mph 80 % 0.00 in
22:18 55.2 °F 49.1 °F 30.00 in WSW 5.9 mph 15.0 mph 80 % 0.00 in
22:23 55.4 °F 49.0 °F 30.00 in South 13.0 mph 13.0 mph 79 % 0.00 in
22:29 55.7 °F 48.9 °F 30.00 in SSW 10.7 mph 19.6 mph 78 % 0.00 in
22:34 55.9 °F 49.1 °F 30.00 in SSW 7.9 mph 15.0 mph 78 % 0.00 in
22:39 56.0 °F 49.2 °F 30.00 in SSW 9.8 mph 19.6 mph 78 % 0.00 in
22:49 56.1 °F 49.0 °F 30.00 in SW 8.7 mph 20.0 mph 77 % 0.00 in
22:54 56.2 °F 49.1 °F 29.99 in South 11.2 mph 19.6 mph 77 % 0.00 in
22:59 56.2 °F 49.1 °F 30.00 in SW 9.1 mph 19.6 mph 77 % 0.00 in
23:04 56.2 °F 48.7 °F 29.99 in SSW 8.4 mph 18.4 mph 76 % 0.00 in
23:09 56.1 °F 48.6 °F 29.98 in South 7.3 mph 13.0 mph 76 % 0.00 in
23:14 56.0 °F 48.9 °F 29.99 in South 9.6 mph 11.5 mph 77 % 0.00 in
23:20 55.9 °F 48.8 °F 29.99 in SSW 10.5 mph 16.1 mph 77 % 0.00 in
23:25 55.7 °F 48.9 °F 29.99 in SW 9.2 mph 15.0 mph 78 % 0.00 in
23:30 55.6 °F 48.8 °F 29.99 in SSW 7.2 mph 17.3 mph 78 % 0.00 in
23:35 55.5 °F 48.8 °F 29.98 in SW 12.5 mph 27.6 mph 78 % 0.00 in
23:40 55.5 °F 49.1 °F 29.98 in South 6.3 mph 10.0 mph 79 % 0.00 in
23:45 55.3 °F 48.9 °F 29.98 in SSW 6.9 mph 13.0 mph 79 % 0.00 in
23:55 55.0 °F 48.9 °F 29.97 in SSW 10.0 mph 17.3 mph 80 % 0.00 in
Crab Meadow Weather
Compliments of Weather Underground - 2.75 mb

Script developed by  Jim McMurry - jmcmurry@mwt.net Adapted for the template by  Wim van der Kuil - Leuven-Template.eu

Dew Point: The dew point is the temperature to which air must be cooled, at constant barometric pressure, for water vapor to condense into water. The condensed water is called dew. When the dew point temperature falls below freezing it is called the frost point, as the water no longer creates dew but instead creates frost. The dew point is associated with relative humidity. A high relative humidity indicates that the dew point is closer to the current air temperature. If the relative humidity is 100%, the dew point is equal to the current temperature. Given a constant dew point, an increase in temperature will lead to a decrease in relative humidity.